RH
63 47 38 36 59 56 63 30 24 27 28 21 22 30 33 36 43 55 32 36 31 33 46 56 82 80 81 82 81 78 75 77 75 75 75 75 73 74 72 72 72 73 73 73 72 71 74 72 74
28 32 33 33 90 59 60 28 32 29 24 24 26 28 39 44 32 34 42 33 28 32 37 46 85 82 79 80 80 78 75 75 74 74 74 73 73 74 70 70 68 73 74 71 71 70 68 69 70
34 30 34 36 58 67 50 34 27 25 23 28 31 32 37 42 31 31 33 29 26 30 32 55 83 82 78 77 76 76 74 73 75 76 75 76 76 73 70 75 73 68 70 72 72 70 68 71 73
26 27 28 70 49 34 35 37 25 26 24 25 29 43 41 32 30 28 29 32 26 26 32 70 79 76 76 76 75 75 74 75 75 74 74 73 70 69 68 69 71 72 71 67 69 68 69 68 73
23 25 41 52 36 31 29 33 31 38 31 29 26 39 45 33 27 28 30 35 26 25 38 50 81 78 76 75 74 74 74 74 74 72 70 69 68 66 68 71 71 66 65 72 66 71 72 69 68
27 31 49 30 30 28 29 27 29 29 29 28 30 42 55 37 30 29 26 29 25 27 32 49 75 76 75 74 74 73 72 72 71 70 69 66 65 66 67 67 65 64 67 66 64 65 69 70 67
22 20 23 24 30 29 34 28 33 27 26 27 23 40 50 41 29 26 24 24 22 25 30 39 45 64 74 74 73 73 71 72 71 69 67 67 69 69 69 68 67 66 65 65 68 68 65 66 69
20 17 23 24 25 32 27 30 27 31 30 23 25 41 47 34 28 24 23 23 23 23 27 35 36 43 51 54 71 69 70 70 70 67 69 69 69 66 68 70 68 66 65 65 66 67 71 70 69
16 35 26 24 23 26 25 28 28 25 27 30 30 29 30 28 26 25 25 24 24 25 26 28 32 39 46 49 58 67 70 70 70 76 72 66 48 94 70 63 68 66 70 67 67 68 69 71 71
16 27 21 17 18 22 23 25 28 33 31 33 32 28 28 28 28 27 28 28 28 28 26 30 32 31 37 35 61 56 66 68 94 84 79 81 73 51 58 53 63 62 63 68 69 71 70 68 42
15 20 18 18 19 21 24 24 22 27 43 27 36 35 30 30 29 27 25 24 26 26 26 29 30 36 41 42 74 48 93 96 79 88 89 86 64 46 47 43 41 41 58 40 56 58 52 48 43
18 16 17 20 21 22 25 24 24 31 28 23 29 29 29 30 28 26 24 23 24 27 28 28 28 37 44 50 47 78 95 86 88 93 85 84 68 56 56 48 69 50 39 39 44 45 61 53 74
15 17 18 20 20 21 24 26 25 31 29 24 27 28 28 28 27 24 23 23 24 25 26 28 31 47 44 51 49 71 78 81 52 78 61 70 56 74 63 51 43 44 41 41 65 51 75 73 48
13 16 18 19 21 23 26 29 23 28 24 26 28 28 27 26 24 24 24 24 25 26 28 28 32 43 44 50 64 88 84 52 46 50 48 61 50 70 57 44 51 45 40 55 64 59 50 64 42
13 18 18 19 20 24 41 32 24 26 24 26 26 26 26 26 24 26 25 26 26 27 29 31 35 39 53 58 63 73 54 50 45 44 49 60 54 82 70 55 62 67 46 57 55 52 64 81 68
15 15 71 20 21 33 74 40 28 27 27 26 25 25 27 26 25 26 24 25 28 30 34 35 31 37 46 48 55 46 50 48 54 56 50 75 62 62 63 69 64 56 45 48 80 84 86 92 83
16 81 41 21 19 20 35 31 27 24 26 26 25 25 26 27 27 27 25 26 30 34 42 41 40 39 54 54 81 71 56 53 50 66 53 54 64 60 62 62 59 50 44 87 79 64 82 88 88
24 46 20 17 22 20 21 22 26 24 24 26 25 24 26 25 25 26 26 26 27 34 37 44 42 47 49 54 74 71 67 55 76 74 69 68 72 62 78 50 51 49 78 87 73 80 77 78 60
23 20 15 13 13 17 19 18 23 25 23 24 25 24 24 24 22 23 24 25 27 30 38 45 49 54 52 49 71 86 67 80 83 89 69 55 51 55 72 68 72 67 72 72 85 82 88 61 77
12 13 16 16 12 14 16 16 15 23 24 22 23 23 23 22 21 23 24 24 26 32 38 47 52 57 58 50 51 69 86 73 59 52 71 53 54 55 65 72 79 74 79 69 69 79 92 88 78
11 16 28 23 13 11 15 22 24 17 22 22 20 20 19 20 20 22 24 24 24 29 39 44 53 56 60 59 51 56 70 85 86 78 57 53 55 55 62 68 81 84 84 88 85 84 93 94 94
17 14 14 13 15 46 28 70 42 18 23 23 21 20 18 18 20 21 21 22 22 27 30 41 50 58 57 62 58 66 87 82 81 66 51 49 56 60 64 68 65 79 85 93 80 65 88 96 95
17 12 13 12 13 21 22 20 21 13 20 22 21 20 19 18 18 18 19 21 21 24 28 35 50 63 64 66 68 58 64 50 55 47 82 63 63 62 60 70 70 70 60 66 72 82 82 96 97
10 10 10 11 11 17 16 16 17 28 14 18 17 18 19 19 18 18 18 20 22 22 26 33 51 63 63 62 66 69 64 70 63 69 65 64 56 55 74 68 65 64 59 61 78 89 77 88 84
11 11 15 21 16 24 12 12 21 16 16 17 19 18 17 19 21 18 20 20 22 25 28 33 48 62 61 60 61 65 66 66 66 64 54 61 82 52 65 78 66 66 64 61 60 64 76 81 73
12 10 15 33 28 52 21 14 18 14 18 20 20 19 20 18 19 19 20 21 24 27 31 36 46 61 58 59 63 63 64 55 71 73 79 57 74 61 62 72 67 61 60 61 68 55 54 78 70
14 15 11 27 41 24 19 17 12 16 20 21 23 25 25 21 22 26 24 25 29 33 37 41 47 52 57 51 59 63 64 66 57 64 77 77 65 54 60 66 68 64 65 64 61 53 55 60 60
10 12 14 11 23 25 17 25 20 20 24 24 25 26 30 33 35 35 31 33 34 33 35 40 45 51 51 51 56 67 71 79 76 70 77 70 74 76 68 67 64 64 69 68 63 53 59 56 45
10 12 9 13 14 25 23 21 23 23 25 27 26 27 31 34 36 36 36 36 35 34 36 38 47 70 72 84 85 84 78 90 75 73 83 95 88 78 83 70 69 63 67 66 68 63 56 54 55
8 10 8 10 16 10 11 19 16 21 22 26 29 29 32 35 37 36 38 38 40 46 54 63 68 70 74 78 78 75 72 71 74 72 76 86 88 90 94 85 73 68 75 72 78 69 53 51 52
Wind_Speed
12 12 12 7 6 5 5 14 15 13 10 13 7 11 14 18 12 11 23 21 24 21 18 16 14 14 14 14 15 14 12 11 12 11 10 9 9 9 11 11 9 9 10 12 12 12 11 12 12
10 4 7 7 5 9 5 10 12 11 12 11 10 5 16 16 11 25 21 22 23 21 18 17 13 14 14 14 14 14 12 10 10 10 9 8 9 8 10 11 10 8 10 10 10 12 11 11 11
15 5 10 5 5 7 6 8 11 11 14 10 7 8 11 10 19 17 25 23 24 20 19 18 14 14 14 14 14 13 12 10 9 10 9 9 9 9 7 9 9 9 8 10 9 9 10 9 9
6 7 6 6 11 9 14 5 12 11 9 7 10 13 9 6 18 20 24 18 21 20 22 17 15 15 14 13 13 12 12 11 10 9 8 8 8 7 7 7 8 7 9 8 7 7 8 8 9
10 5 4 6 11 9 10 5 14 6 3 6 2 16 12 12 11 22 23 17 17 20 21 17 14 14 14 13 12 12 10 9 9 9 8 7 6 5 6 6 6 6 5 7 6 5 7 7 7
8 2 3 8 9 7 7 5 8 9 7 8 13 15 7 8 17 19 22 21 18 20 19 18 15 14 13 12 11 11 10 8 8 7 6 5 4 4 3 3 3 2 3 3 4 4 5 5 6
10 5 10 11 7 7 8 4 3 7 8 9 2 11 10 16 20 17 16 19 15 20 18 16 15 14 13 11 10 9 8 7 7 6 4 3 3 3 3 2 1 1 2 2 3 3 5 5 5
6 1 12 7 11 6 6 7 4 9 13 6 7 9 17 19 21 17 14 15 15 17 18 15 17 14 12 12 9 8 7 6 6 5 2 2 5 5 8 8 7 2 3 3 5 5 6 5 7
4 3 8 12 11 8 7 10 8 7 9 10 2 15 21 23 21 18 15 14 12 12 17 16 16 15 12 11 10 7 8 7 7 6 7 8 7 4 10 12 9 1 4 4 6 7 7 8 9
7 2 13 12 15 10 4 9 8 7 8 11 8 21 23 22 19 18 17 15 15 14 15 14 14 15 13 10 12 9 6 4 5 4 4 7 5 8 10 3 5 5 8 8 10 8 9 9 10
2 8 8 14 10 8 7 8 5 11 6 13 14 20 21 19 18 18 17 16 16 15 12 15 12 11 12 6 7 6 3 3 4 4 5 4 6 5 8 6 3 6 12 7 12 10 9 10 7
6 7 8 8 7 8 9 5 3 11 1 16 16 18 20 20 18 16 16 16 18 16 14 14 14 11 9 6 8 5 4 5 4 4 6 3 4 8 5 7 1 8 7 7 5 6 7 11 6
1 11 6 7 6 10 8 6 5 13 6 15 17 17 18 18 17 16 15 14 15 16 14 13 12 11 8 4 6 6 6 5 7 4 7 5 7 5 7 8 5 6 9 8 3 3 4 8 8
3 7 8 9 9 7 10 5 8 11 12 15 15 16 16 17 17 14 14 14 12 14 15 13 14 13 11 9 7 5 5 9 9 8 10 11 8 5 9 9 5 8 10 3 1 5 7 5 8
9 11 8 8 8 16 24 5 10 11 13 15 16 14 16 17 16 14 13 11 12 11 12 13 12 14 13 12 8 8 9 8 8 8 9 8 8 6 8 7 6 6 8 3 3 5 4 4 8
10 10 18 2 5 25 22 13 11 13 13 14 15 14 14 15 16 14 13 13 13 10 10 11 11 13 17 14 11 9 9 10 8 5 9 6 10 10 7 6 8 8 7 4 5 6 1 2 8
5 8 19 13 7 2 15 19 14 13 13 13 13 15 14 13 15 15 15 13 13 12 12 11 10 10 10 11 9 8 7 8 9 8 10 11 11 10 8 8 7 7 7 1 2 6 3 4 3
11 21 5 3 6 3 5 8 14 12 13 13 13 15 16 15 15 16 15 15 12 13 11 11 10 10 9 7 9 7 7 9 7 6 9 11 10 7 5 9 6 7 3 5 6 7 6 7 8
16 26 16 8 11 3 7 4 18 15 13 14 15 16 17 16 17 16 16 15 15 13 14 13 12 11 9 9 7 7 8 7 7 8 13 11 8 9 7 7 6 7 7 7 5 6 5 7 3
10 5 10 15 5 6 5 5 7 18 16 15 14 14 16 17 17 16 17 16 16 14 12 13 12 12 11 8 8 6 7 6 8 8 3 8 9 9 9 10 7 8 7 9 7 6 2 2 6
11 9 12 16 12 7 10 11 13 15 16 14 15 15 16 16 16 16 15 15 15 14 15 14 13 13 12 11 7 5 3 2 3 4 6 7 10 10 9 10 8 7 7 5 2 4 4 4 4
4 19 10 5 2 7 13 6 20 15 16 16 16 17 16 16 16 15 16 14 15 13 12 14 14 14 13 12 9 8 4 5 3 7 7 5 9 9 9 10 9 5 3 2 5 7 4 7 6
14 13 10 12 12 12 3 2 13 10 19 18 17 19 18 17 18 16 16 15 12 15 13 13 13 12 11 12 12 8 9 7 7 7 6 4 5 9 10 9 8 7 7 8 6 5 8 3 4
7 10 14 14 13 4 12 17 18 6 4 6 5 16 19 18 16 15 12 13 12 10 10 12 13 12 12 12 13 11 9 6 4 3 4 5 8 6 6 8 8 6 6 5 5 5 8 5 5
11 17 10 7 10 6 7 10 8 4 8 7 5 5 13 17 15 16 15 13 11 11 11 9 12 11 12 13 12 12 10 9 9 8 8 5 1 6 9 8 8 6 7 4 3 4 6 5 6
11 16 7 1 6 2 22 4 13 14 11 8 6 5 4 10 17 14 12 12 10 6 8 9 9 10 12 12 12 11 11 9 7 8 6 6 5 7 2 6 6 7 6 5 4 5 5 6 4
14 17 14 16 15 17 11 5 6 13 13 11 10 8 5 2 6 6 3 5 6 5 5 7 7 9 9 12 9 9 9 9 6 7 4 5 8 8 6 6 7 6 5 5 3 5 3 4 5
15 12 14 7 5 7 8 8 8 14 11 11 11 11 10 10 7 7 6 7 4 6 6 5 5 7 6 8 2 1 3 3 4 3 6 7 6 8 3 4 5 5 6 4 5 5 6 2 4
12 14 17 17 6 7 12 11 22 13 12 12 12 12 12 11 10 9 7 7 5 5 5 8 7 10 6 8 6 5 3 5 4 4 5 7 8 6 4 5 4 3 6 5 3 4 2 2 4
18 14 18 13 14 11 9 10 11 14 10 10 13 12 12 11 10 9 9 7 7 9 8 9 9 6 6 5 4 4 4 4 4 4 5 6 6 4 4 7 6 5 5 5 5 7 6 4 5
Wind_Direction
178 199 233 255 263 184 36 91 91 107 105 93 79 63 73 33 31 90 130 141 131 136 130 138 131 132 134 135 133 134 134 131 128 127 124 120 115 109 103 103 102 116 117 108 107 103 107 108 112
230 201 246 276 151 66 49 81 78 92 98 99 96 53 84 66 95 128 120 146 144 130 149 138 131 133 134 131 133 136 136 134 133 129 121 120 118 115 107 110 108 94 107 104 116 114 117 114 113
255 236 269 294 44 60 110 105 78 94 126 116 105 54 36 82 125 130 132 147 137 148 139 120 137 134 135 135 135 134 134 136 132 122 114 105 100 99 104 112 127 113 101 105 106 115 117 114 109
215 205 209 178 70 57 75 73 105 113 149 70 105 95 90 139 133 127 142 140 138 154 125 133 140 140 139 136 136 135 138 143 136 120 110 105 103 107 108 91 90 93 129 115 118 128 126 125 117
226 240 346 119 74 76 87 84 88 296 70 118 6 88 112 115 122 136 138 143 170 138 120 141 144 141 139 139 140 137 134 124 117 117 113 106 97 82 70 65 94 108 94 111 127 115 130 138 135
269 79 191 73 83 118 100 79 76 95 75 86 107 110 121 148 139 153 154 150 187 128 133 134 142 144 145 145 144 140 136 131 122 117 112 112 116 120 120 125 87 68 93 133 148 155 150 142 155
258 71 47 73 134 76 108 133 126 102 119 87 96 96 129 174 148 158 165 158 159 128 144 151 158 151 151 150 150 142 139 134 127 121 122 158 167 167 128 81 117 177 219 191 187 201 180 191 185
295 37 87 79 75 94 108 112 73 76 69 113 337 129 152 151 153 156 162 159 158 145 143 161 155 163 166 160 157 158 153 148 145 146 191 243 228 225 183 188 177 208 265 229 233 212 198 217 210
229 300 58 67 71 120 165 118 65 86 130 57 63 135 138 146 155 159 160 165 154 166 148 165 164 162 169 166 159 175 178 174 176 90 30 323 333 352 259 107 118 168 278 247 236 235 227 217 222
284 313 70 25 59 97 124 114 143 114 124 105 108 114 141 158 158 161 167 170 160 185 161 157 162 171 169 184 145 194 160 177 94 108 75 274 293 302 307 25 144 211 229 238 229 216 229 224 243
12 67 76 62 46 84 102 117 185 139 110 131 140 144 154 162 167 169 174 177 169 183 173 159 188 181 153 186 155 172 128 129 169 181 191 246 289 296 292 271 206 234 192 247 192 198 224 232 272
116 69 61 88 102 115 88 134 131 104 96 109 137 154 162 168 173 175 180 178 172 181 181 174 181 193 182 156 169 138 133 173 185 196 213 244 262 281 275 291 215 246 253 260 216 233 221 283 217
29 101 95 109 123 97 129 66 134 105 124 116 138 153 165 175 176 180 180 181 179 180 185 193 187 177 211 206 166 160 184 187 198 210 220 224 274 292 246 248 280 300 296 282 285 233 175 251 273
99 101 137 160 128 133 109 126 158 124 154 129 147 157 167 181 181 180 187 182 192 177 179 193 189 171 202 219 200 166 186 209 232 203 244 200 246 228 264 269 267 249 257 243 104 218 264 248 254
143 175 170 149 161 91 44 213 94 132 142 148 162 169 165 175 179 184 191 180 189 179 176 194 195 177 188 207 193 187 214 226 233 237 232 242 231 223 252 264 263 261 248 156 202 269 227 271 281
221 232 50 154 170 119 124 131 134 151 159 165 169 168 168 174 178 184 186 192 174 184 177 196 199 197 177 197 191 218 207 217 227 231 251 192 245 254 255 244 244 238 246 233 216 207 255 213 258
150 43 270 149 157 133 185 115 140 163 170 170 176 171 182 184 185 179 188 203 182 179 175 193 200 212 172 192 158 209 223 216 222 218 232 229 210 224 234 237 235 244 231 111 248 262 181 228 246
270 174 274 128 163 178 233 128 149 174 179 172 178 173 189 191 196 179 200 188 197 179 182 195 198 207 209 184 154 199 231 229 222 225 239 226 235 215 206 242 234 225 271 224 202 214 223 227 241
224 256 193 179 108 242 231 239 149 177 193 175 181 178 186 199 189 193 193 193 192 196 177 195 198 186 203 206 180 191 218 220 217 215 235 212 224 229 215 256 245 228 236 230 248 241 227 277 314
242 260 28 1 94 252 263 242 165 168 194 182 193 186 192 198 190 197 190 199 198 185 203 193 206 194 203 208 229 175 194 220 216 242 214 211 231 229 210 236 236 226 237 230 232 250 204 282 273
243 112 107 250 241 224 313 347 316 174 184 193 185 197 200 195 201 184 197 199 201 192 184 201 198 200 204 228 205 204 192 250 246 263 227 228 224 226 225 226 227 233 247 258 237 237 151 243 311
34 310 282 253 255 123 272 165 272 190 176 188 198 194 203 196 200 181 195 201 196 190 194 190 194 195 200 204 231 204 208 223 214 220 225 190 229 236 238 234 233 215 217 221 235 246 234 214 227
152 215 286 302 277 153 231 119 198 203 175 175 201 199 205 198 188 200 192 190 215 186 188 182 190 193 204 193 227 200 213 215 207 240 109 198 228 224 232 219 223 212 224 196 206 205 233 197 218
319 265 245 248 244 247 225 219 80 259 36 111 197 200 199 196 202 192 197 192 196 202 179 177 182 189 197 200 205 224 233 218 244 200 223 218 243 178 245 231 217 205 252 222 185 200 227 201 225
244 256 259 290 243 350 209 276 111 168 96 101 145 183 205 191 206 191 198 203 199 205 186 182 171 194 193 206 209 211 227 229 225 217 221 237 234 217 186 222 215 212 213 244 267 210 201 222 226
254 271 285 126 334 209 287 249 120 121 113 111 124 146 212 221 182 214 193 203 192 206 171 190 171 191 202 201 211 214 215 215 218 220 217 226 222 273 203 191 222 217 209 217 207 226 237 182 218
225 250 251 172 247 252 175 334 222 123 123 125 114 118 111 144 75 117 217 151 137 191 179 199 198 206 219 201 209 221 218 239 232 245 232 235 215 238 206 204 199 193 215 237 192 229 206 169 220
246 243 290 238 239 312 21 356 290 173 134 128 128 116 106 97 107 134 152 112 140 165 166 163 181 210 229 222 176 65 324 5 341 264 271 256 306 276 229 189 166 170 155 204 216 161 153 186 286
208 235 258 222 190 253 249 210 239 149 157 143 130 129 129 128 121 123 124 128 133 95 88 125 83 54 33 61 82 67 80 51 21 350 325 347 36 303 267 165 106 211 165 172 234 288 209 255 293
238 256 239 243 226 265 311 112 80 83 125 134 119 126 121 125 126 132 132 127 97 80 62 65 92 107 113 115 110 109 158 184 199 249 285 320 95 76 213 217 226 228 199 200 169 277 323 339 285